Flag for Poland Weather past 2 weeks in Włocławek, Poland

Now
63 °F

Mild.


Feels Like: 63 °F
Forecast: 63 / 94 °F
Wind: 1 mph from East

Location: Plock

Current Time: Jul 5, 2015 at 1:24:56 AM

Latest Report: Jul 5, 2015 at 12:00 AM


Visibility: 13 mi

Pressure: 30.13 "Hg

Humidity: 75%

Dew point: 55 °F

Location of WłocławekLocation

Historic Weather in Włocławek — Graph

°F

Włocławek temperature yesterday

Maximum temperature yesterday: 89 °F (at 5:00 PM)
Minimum temperature yesterday: 61 °F (at 5:00 AM)
Average temperature yesterday: 76 °F

Past Weeks' High & Low Weather Summary

 TemperatureHumidityPressure
High89 °F (Jul 4, 5:00 PM)97% (Jun 22, 5:00 AM)30.41 "Hg (Jun 22, 5:00 AM)
Low47 °F (Jun 25, 5:00 AM)26% (Jul 4, 4:00 PM)29.68 "Hg (Jun 23, 4:00 AM)
Average63 °F68%30.08 "Hg
* Reported Midnight between Jun 19 and Jun 20 — Midnight between Jul 4 and Jul 5, Włocławek, Weather by CustomWeather, © 2015

Note: Actual official high and low records may vary slightly from our data, if they occured in-between our weather recording intervals... More about our weather records

Advertising

Włocławek weather history for previous 24 hours

 ConditionsComfort  
Time TempWeatherWind HumidityBarometerVisibility
12:00 AM
Sun, Jul 5
63 °FMild.1 mph75%30.13 "Hg12 mi
11:00 PM
Sat, Jul 4
67 °FMild.1 mph67%30.12 "Hg16 mi
10:00 PM71 °FMild.1 mph56%30.12 "Hg22 mi
9:00 PM78 °FWarm.2 mph43%30.12 "Hg19 mi
8:00 PM85 °FPleasantly warm.1 mph38%30.11 "Hg16 mi
7:00 PM87 °FPleasantly warm.2 mph30%30.12 "Hg19 mi
6:00 PM89 °FHot.2 mph27%30.13 "Hg18 mi
5:00 PM89 °FHot.3 mph27%30.14 "Hg19 mi
4:00 PM88 °FHot.2 mph26%30.16 "Hg19 mi
3:00 PM88 °FPleasantly warm.2 mph29%30.17 "Hg19 mi
2:00 PM86 °FPleasantly warm.1 mph32%30.19 "Hg17 mi
1:00 PM85 °FPleasantly warm.2 mph31%30.21 "Hg19 mi
12:00 PM85 °FPleasantly warm.5 mph33%30.23 "Hg18 mi
11:00 AM83 °FPleasantly warm.3 mph36%30.24 "Hg19 mi
10:00 AM80 °FPleasantly warm.2 mph39%30.25 "Hg17 mi
9:00 AM77 °FWarm.2 mph47%30.27 "Hg19 mi
8:00 AM74 °FMild.2 mph51%30.28 "Hg19 mi
7:00 AM68 °FMild.2 mph63%30.29 "Hg18 mi
6:00 AM64 °FMild.2 mph70%30.29 "Hg19 mi
5:00 AM61 °FCool.2 mph72%30.29 "Hg25 mi
4:00 AM61 °FCool.2 mph71%30.30 "Hg22 mi
3:00 AM62 °FCool.2 mph69%30.31 "Hg16 mi
2:00 AM63 °FMild.2 mph67%30.33 "Hg22 mi
1:00 AM63 °FMild.1 mph66%30.34 "Hg22 mi
Weather by CustomWeather, © 2015

See weather overviewHow to use our weather pages